Location: Asheville, NC
(35.6000°N, 82.5500°W)
Time: 02:32:17

UWE-3 - Pass Details

Date: 13 March 2018
Orbit: 585 x 685 km, 97.6° (Epoch: 16 March)

Event Time Altitude Azimuth Distance (km) Brightness Sun altitude
Rises 21:24:45 0° 209° (SSW) 2,959 ? -22.7°
Reaches altitude 10° 21:27:57 10° 234° (SW) 2,032 ? -23.4°
Maximum altitude 21:30:21 14° 267° (W) 1,745 ? -23.8°
Drops below altitude 10° 21:32:44 10° 300° (WNW) 2,005 ? -24.3°
Sets 21:35:52 0° 325° (NW) 2,894 ? -24.9°
